Weather History for San Jose, Costa Rica

Change the Weather History Date:

Sunday, May 19, 2013

  Actual Average Record
Temperature  
Mean Temperature 76 °F -  
Max Temperature 86 °F 80 °F 87 °F (1998)
Min Temperature 65 °F 65 °F 64 °F (1999)
Cooling Degree Days 10    
Growing Degree Days 26 (Base 50)    
Moisture  
Dew Point 64 °F    
Average Humidity 73    
Maximum Humidity 94    
Minimum Humidity 42    
Precipitation  
Precipitation 0.35 in 0.36 in - ()
Sea Level Pressure  
Sea Level Pressure 29.98 in    
Wind  
Wind Speed 8 mph ()    
Max Wind Speed 22 mph    
Max Gust Speed 22 mph    
Visibility 8.0 miles    
Events Rain , Thunderstorm    
Averages and records for this station are not official NWS values.
T = Trace of Precipitation, MM = Missing Value Source: Averaged Metar Reports

Daily Weather History Graph

Daily Weather History Graph

Search for Another Location

Airport:

Trip Planner

Search our weather history database for the weather conditions in past years. The results will help you decide how hot, cold, wet, or windy it might be!

Date:

Astronomy

May. 19, 2013 Rise Set
Actual Time 5:15 AM CST 5:51 PM CST
Civil Twilight 4:52 AM CST 6:14 PM CST
Nautical Twilight 4:26 AM CST 6:40 PM CST
Astronomical Twilight 3:59 AM CST 7:07 PM CST
Moon 12:54 PM CST (5/19) 12:32 AM CST (5/19)
Length of Visible Light 13h 21m
Length of Day
12h 36m
Waxing Gibbous, 66% of the Moon is Illuminated
May 19
Waxing Gibbous
May 24
Full
May 31
Last Quarter
Jun 8
New
Jun 16
First Quarter

Hourly Weather History & Observations

Time (CST) Temp. Heat Index Dew Point Humidity Pressure Visibility Wind Dir Wind Speed Gust Speed Precip Events Conditions
12:00 AM 71 °F - 62 °F 66% 29.84 in 12 mi ENE 10.4 mph - -  
12:00 AM 69.8 °F - 62.6 °F 78% 30.02 in 6.2 mi ENE 10.4 mph - N/A   Unknown
1:00 AM 71.6 °F - 60.8 °F 69% 30.00 in - ESE 18.4 mph - N/A   Clear
2:00 AM 71.6 °F - 60.8 °F 69% 29.99 in - East 8.1 mph 19.6 mph N/A   Clear
3:00 AM 71 °F - 61 °F 63% 29.84 in 12 mi ENE 11.5 mph - -  
3:00 AM 71.6 °F - 60.8 °F 69% 29.98 in - ENE 11.5 mph - N/A   Clear
4:00 AM 68.0 °F - 60.8 °F 78% 29.99 in - NNW 4.6 mph - N/A   Clear
5:00 AM 68.0 °F - 60.8 °F 78% 30.00 in - East 3.5 mph - N/A   Clear
6:00 AM 67 °F - 61 °F 75% 29.89 in 12 mi NNE 5.8 mph - -   Scattered Clouds
6:00 AM 68.0 °F - 60.8 °F 78% 30.02 in 6.2 mi NNE 5.8 mph - N/A   Scattered Clouds
7:00 AM 73.4 °F - 62.6 °F 69% 30.04 in 6.2 mi NE 5.8 mph - N/A   Mostly Cloudy
8:00 AM 77.0 °F - 62.6 °F 61% 30.04 in 6.2 mi East 2.3 mph - N/A   Mostly Cloudy
9:00 AM 80 °F - 61 °F 42% 29.87 in 12 mi ESE 13.8 mph - -   Scattered Clouds
9:00 AM 80.6 °F 81.5 °F 60.8 °F 51% 30.04 in 6.2 mi ESE 13.8 mph - N/A   Mostly Cloudy
10:00 AM 82.4 °F 82.9 °F 60.8 °F 48% 30.03 in 6.2 mi ESE 11.5 mph - N/A   Mostly Cloudy
11:00 AM 84.2 °F 84.4 °F 60.8 °F 45% 30.02 in 6.2 mi ESE 9.2 mph - N/A   Scattered Clouds
12:00 PM 84.2 °F 85.0 °F 62.6 °F 48% 29.99 in 6.2 mi ESE 6.9 mph - N/A   Scattered Clouds
1:00 PM 82.4 °F 85.4 °F 68.0 °F 62% 29.97 in 6.2 mi WSW 9.2 mph - N/A   Scattered Clouds
2:00 PM 80.6 °F 83.2 °F 68.0 °F 65% 29.95 in 6.2 mi SW 11.5 mph - N/A Thunderstorm Light Thunderstorm
3:00 PM 75 °F - 65 °F 62%  in 12 mi NNW 21.9 mph - -   Overcast
3:00 PM 75.2 °F - 64.4 °F 69% 29.94 in 6.2 mi NNW 10.4 mph 21.9 mph N/A   Mostly Cloudy
3:11 PM 71.6 °F - 68.0 °F 88% 29.94 in 6.2 mi West 9.2 mph - N/A Rain , Thunderstorm Thunderstorms and Rain
4:00 PM 69.8 °F - 68.0 °F 94% 29.95 in 6.2 mi WNW 5.8 mph - N/A   Mostly Cloudy
5:00 PM 69.8 °F - 66.2 °F 88% 29.97 in 6.2 mi WNW 6.9 mph - N/A   Mostly Cloudy
6:00 PM 69 °F - 67 °F 92% 29.89 in 12 mi SSE 2.3 mph - -   Partly Cloudy
6:00 PM 69.8 °F - 68.0 °F 94% 30.00 in 6.2 mi SSE 2.3 mph - N/A   Mostly Cloudy
7:00 PM 69.8 °F - 66.2 °F 88% 30.01 in 6.2 mi NE 2.3 mph - N/A   Scattered Clouds
8:00 PM 69.8 °F - 66.2 °F 88% 30.03 in - SSW 3.5 mph - N/A   Clear
9:00 PM 69 °F - 67 °F 90% 29.88 in 12 mi Calm Calm - -   Partly Cloudy
9:00 PM 69.8 °F - 66.2 °F 88% 30.05 in - Calm Calm - N/A   Clear
10:00 PM 69.8 °F - 66.2 °F 88% 30.06 in - SE 2.3 mph - N/A   Clear
11:00 PM 69.8 °F - 66.2 °F 88% 30.06 in - Calm Calm - N/A   Clear